AirNav   Air Wisconsin Up To $57,000 Bonus
 
 290 users online  

S77 Magee Airport
Coeur d'Alene, Idaho, USA

GOING TO COEUR D'ALENE?


FAA INFORMATION EFFECTIVE 25 FEBRUARY 2021

Location

FAA Identifier: S77
Lat/Long: 47-50-29.6100N 116-15-07.1800W
47-50.493500N 116-15.119667W
47.8415583,-116.2519944
(estimated)
Elevation: 3002 ft. / 915 m (estimated)
Variation: 19E (1985)
From city: 23 miles NE of COEUR D'ALENE, ID
Time zone: UTC -8 (UTC -7 during Daylight Saving Time)
Zip code: 83803

Airport Operations

Airport use: Open to the public
Control tower: no
ARTCC: SEATTLE CENTER
FSS: BOISE FLIGHT SERVICE STATION
NOTAMs facility: BOI (NOTAM-D service available)
Attendance: UNATNDD
Wind indicator: yes
Segmented circle: yes

Airport Communications

CTAF: 122.9

Nearby radio navigation aids

VOR radial/distance  VOR name  Freq  Var
COEr061/23.3COEUR D'ALENE VOR/DME108.8019E
MLPr298/33.7MULLAN PASS VOR/DME117.8015E

 
NDB name  Hdg/Dist  Freq  Var  ID
SANDPOE141/29.726414ESZT ... --.. -

Airport Services

Parking: tiedowns
Airframe service: NONE
Powerplant service: NONE
Bottled oxygen: NONE
Bulk oxygen: NONE

Runway Information

Runway 1/19

Dimensions: 2200 x 150 ft. / 671 x 46 m
FIRST 300 FT OF N END VERY ROUGH.
Surface: turf, in fair condition
Runway edge markings: 01/19 EDGES & THRS MARKED WITH WHITE ROCKS.
RUNWAY 1  RUNWAY 19
Traffic pattern: leftleft
Displaced threshold: no300 ft.
Obstructions: 500 ft. hill, 900 ft. from runway, 200 ft. left of centerline, 1:1 slope to clear
+17 FT ROAD AT 65 FT ON CNTRLN.
10 ft. brush, 120 ft. right of centerline

Airport Ownership and Management from official FAA records

Ownership: Publicly-owned
Owner: STATE OF IDAHO ITD, DIV AERO
BOX 7129
BOISE, ID 83707-1129
Phone 208-334-8775
Manager: DIVISION ADMIN
BOX 7129
BOISE, ID 83707-1129
Phone 208-334-8775

Airport Operational Statistics

Aircraft operations: avg 21/week *
100% transient general aviation
* for 12-month period ending 31 August 2018

Additional Remarks

NO WINTER MAINT.
RCMD LAND RWY 19; TKOF RWY 01 WHEN WIND CONDS PERMIT.
HEAVY SNOWMOBLILE ACTIVITY DURING WINTER MONTHS.
RY 01/19 NORTH 500 FT CLOSED APRIL 1ST - JUL 15TH.
FOR CD CTC SEATTLE ARTCC AT 253-351-3694.

Instrument Procedures

There are no published instrument procedures at S77.

Some nearby airports with instrument procedures:

KCOE - Coeur d'Alene Airport - Pappy Boyington Field (23 nm W)
KSZT - Sandpoint Airport (30 nm NW)
S59 - Libby Airport (40 nm NE)
KSFF - Felts Field Airport (44 nm W)
KDEW - Deer Park Airport (48 nm W)
 
Loc | Ops | Rwys | IFR | FBO | Links
Com | Nav | Svcs | Stats | Notes
Area around S77 (Magee Airport)
 
Road maps at: MapQuest Bing Google
 
Aerial photo
WARNING: Photo may not be current or correct
Aerial photo of S77 (Magee Airport)
Taken in 2004

Do you have a better or more recent aerial photo of Magee Airport that you would like to share? If so, please send us your photo.

 
Sectional chart

 
Airport distance calculator
Flying to Magee Airport? Find the distance to fly.

From to S77

Sunrise and sunset
Times for 06-Mar-2021
 Local
(UTC-8)
 Zulu
(UTC)
Morning civil twilight05:4613:46
Sunrise06:1714:17
Sunset17:3601:36
Evening civil twilight18:0702:07

Current date and time
Zulu (UTC)  06-Mar-2021 08:23:40
Local (UTC-8)  06-Mar-2021 00:23:40
 
METAR
KCOE 
23nm W 
060756Z AUTO 17007KT 150V210 10SM CLR 06/M01 A2982 RMK AO2 SLP118 T00561006 401611022
KSZT 
30nm NW 
060755Z AUTO 00000KT 10SM CLR 00/M02 A2979 RMK AO2
KMLP 
33nm SE 
060753Z AUTO 17003KT 10SM CLR 04/M10 A2981 RMK AO2 SLP040 T00391100 400781006
KS59 
40nm NE 
060745Z AUTO 00000KT 10SM M02/M04 A2978
KSFF 
44nm W 
060753Z AUTO 01003KT 10SM CLR 05/M01 A2983 RMK AO2 SLP098 T00501011 401780000
TAF
KCOE 
23nm W 
060540Z 0606/0706 20004KT P6SM SCT060 BKN200 FM061200 16004KT P6SM VCSH OVC028 FM061500 23007KT 5SM -RA SCT008 OVC018 TEMPO 0617/0619 5SM -RA OVC008 FM062000 22008KT P6SM BKN035 OVC090 FM062100 23013KT P6SM BKN040 BKN090
NOTAMs
Click for the latest NOTAMs
NOTAMs are issued by the DoD/FAA and will open in a separate window not controlled by AirNav.

 

 
 

Would you like to see your business listed on this page?

 If your business provides an interesting product or service to pilots, flight crews, aircraft, or users of the Magee Airport, you should consider listing it here.  To start the listing process, click on the button below
 
Add a business
 

Other Pages about Magee Airport

www.flyidaho.org/...
skychickadventures.com/travel-images.asp?id=84
 
Update a link
 
Copyright © AirNav, LLC. All rights reserved. Privacy Policy  Contact